Location: Hardenberg
(52.5670°N, 6.6170°E)
Time: 02:40:53
(UTC+02:00)

ISS - Visible Passes

Search period start: 17 May 2021 00:00
Search period end: 27 May 2021 00:00
Orbit: 417 x 422 km, 51.6° (Epoch: 16 May)

Date Brightness Start Highest point End Pass type
(mag) Time Alt. Az. Time Alt. Az. Time Alt. Az.
17 May -3.9 00:28:58 10° WSW 00:32:20 74° S 00:35:43 10° E visible
17 May -3.8 02:05:43 10° W 02:09:04 61° SSW 02:12:24 10° ESE visible
17 May -2.6 03:42:48 10° W 03:45:29 22° SSW 03:48:10 10° SSE visible
17 May -3.9 23:41:33 10° WSW 23:44:54 66° S 23:48:15 10° E visible
18 May -3.9 01:18:16 10° W 01:21:38 71° S 01:22:53 35° ESE visible
18 May -1.5 02:55:10 10° W 02:55:46 14° W 02:55:46 14° W visible
18 May -3.7 22:54:10 10° WSW 22:57:28 56° SSE 23:00:48 10° E visible
19 May -3.9 00:30:49 10° W 00:34:12 77° S 00:36:27 19° E visible
19 May -2.3 02:07:38 10° W 02:09:22 25° WSW 02:09:22 25° WSW visible
19 May -3.4 22:06:51 10° SW 22:10:04 44° SSE 22:13:19 10° E visible
19 May -3.9 23:43:22 10° W 23:46:44 78° S 23:50:07 10° E visible
20 May -3.5 01:20:09 10° W 01:23:12 49° SW 01:23:12 49° SW visible
20 May -3.8 22:55:55 10° WSW 22:59:17 74° S 23:02:39 10° E visible
21 May -3.8 00:32:41 10° W 00:36:01 61° SSW 00:37:06 37° SE visible
21 May -1.3 02:09:45 10° W 02:10:02 11° W 02:10:02 11° W visible
21 May -3.8 23:45:13 10° W 23:48:35 71° S 23:51:03 17° ESE visible
22 May -2.3 01:22:07 10° W 01:23:58 24° WSW 01:23:58 24° WSW visible
22 May -3.8 22:57:45 10° W 23:01:07 76° S 23:04:29 10° E visible
23 May -3.3 00:34:34 10° W 00:37:44 39° SSW 00:37:58 38° SSW visible
23 May -3.5 23:47:04 10° W 23:50:21 50° SSW 23:51:59 25° SE visible
24 May -1.3 01:24:29 10° WSW 01:24:55 12° WSW 01:24:55 12° WSW visible
24 May -3.7 22:59:35 10° W 23:02:55 61° SSW 23:06:01 12° ESE visible
25 May -2.2 00:36:39 10° W 00:38:57 21° SW 00:38:57 21° SW visible
25 May -2.7 23:49:00 10° W 23:51:59 29° SSW 23:53:01 24° S visible
26 May -3.1 23:01:26 10° W 23:04:37 39° SSW 23:07:05 15° SE visible
